This is the latest recevied weather packets stored in our database for station/object N6OIM. If no packets are shown the sender has not sent any weather packets the latest 10 day(s).
| Time | Temp. | Humidity | Pressure | Rain* | Wind** | Luminosity | Snow |
|---|---|---|---|---|---|---|---|
| 1777968206 | 12.22° C | 91% | 1013.2 hPa | 1.78 mm | - | - | - |
| 1777967915 | 12.22° C | 91% | 1013.1 hPa | 1.78 mm | - | - | - |
| 1777967602 | 12.22° C | 91% | 1013.2 hPa | 1.78 mm | - | - | - |
| 1777967311 | 12.22° C | 91% | 1013.2 hPa | 1.78 mm | - | - | - |
| 1777967000 | 12.22° C | 91% | 1013.2 hPa | 2.03 mm | - | - | - |
| 1777966709 | 12.22° C | 91% | 1013.3 hPa | 1.78 mm | - | - | - |
| 1777966397 | 12.22° C | 91% | 1013.2 hPa | 1.78 mm | - | - | - |
| 1777966110 | 12.22° C | 91% | 1013.4 hPa | 2.03 mm | - | - | - |
| 1777965798 | 12.22° C | 91% | 1013.4 hPa | 1.78 mm | - | - | - |
| 1777965507 | 12.22° C | 91% | 1013.5 hPa | 1.27 mm | - | - | - |
| 1777965199 | 12.22° C | 91% | 1013.5 hPa | 1.52 mm | - | - | - |
| 1777964909 | 12.22° C | 91% | 1013.3 hPa | 1.27 mm | - | - | - |
| 1777964597 | 12.22° C | 91% | 1013.4 hPa | 1.27 mm | - | - | - |
| 1777964308 | 12.22° C | 91% | 1013.4 hPa | 1.52 mm | - | - | - |
| 1777964016 | 12.22° C | 91% | 1013.4 hPa | 2.03 mm | - | - | - |
| 1777963704 | 12.22° C | 91% | 1013.4 hPa | 2.29 mm | - | - | - |
| 1777963416 | 12.22° C | 91% | 1013.4 hPa | 2.54 mm | - | - | - |
| 1777963103 | 12.22° C | 91% | 1013.4 hPa | 2.54 mm | - | - | - |
| 1777962814 | 12.22° C | 91% | 1013.5 hPa | 3.05 mm | - | - | - |
| 1777962502 | 12.22° C | 91% | 1013.4 hPa | 3.05 mm | - | - | - |
| 1777962211 | 12.22° C | 91% | 1013.4 hPa | 3.3 mm | - | - | - |
| 1777961899 | 12.22° C | 91% | 1013.4 hPa | 3.3 mm | - | - | - |
| 1777961611 | 12.22° C | 91% | 1013.5 hPa | 3.05 mm | - | - | - |
| 1777961299 | 12.22° C | 90% | 1013.4 hPa | 3.3 mm | - | - | - |
| 1777961009 | 12.22° C | 90% | 1013.4 hPa | 3.05 mm | - | - | - |
* Rain latest hour (hover to see other rain measurements)
** Current wind speed in m/s (hover to see current wind gust speed)